Temp
77 76 76 75 74 74 74 74 74 74 74 74 74 74 74 75 75 76 77 76 77 77 77 77 77 76 77 76 76 76 76 76 76 76 75 74 74 73 74 72 71 72
77 76 77 76 75 75 74 75 74 74 74 74 75 75 75 74 75 76 76 76 77 77 77 77 77 76 76 76 75 75 75 76 76 77 75 74 75 73 74 73 73 72
77 76 76 76 76 75 76 75 75 75 75 76 76 75 75 75 75 75 76 76 76 77 77 77 77 77 76 75 75 76 76 75 75 76 76 75 75 75 74 74 74 73
77 77 77 77 77 77 77 75 74 75 76 75 75 77 77 78 76 75 75 78 76 76 77 77 77 77 76 76 75 75 76 75 76 76 75 75 75 75 75 74 74 74
78 78 78 78 78 77 76 76 76 75 75 76 77 76 76 75 75 75 75 76 76 76 76 77 77 77 77 76 75 75 75 75 75 75 75 75 75 75 75 74 74 74
78 78 78 78 77 77 76 77 77 76 76 76 76 77 76 76 76 76 76 76 77 77 77 77 77 77 77 77 75 76 76 76 75 75 75 75 75 75 77 75 74 74
78 78 78 78 78 77 77 77 77 78 77 78 76 76 76 76 76 76 76 77 77 77 77 77 76 77 77 77 76 75 75 75 74 74 75 74 75 75 75 75 74 74
79 79 79 79 78 78 77 77 77 77 77 76 76 76 76 77 77 77 77 76 77 77 77 77 77 77 77 76 76 75 75 76 76 75 74 74 73 74 75 76 75 74
80 80 79 79 79 79 78 78 78 78 78 77 77 77 76 77 77 77 76 76 76 77 76 77 76 77 77 77 76 76 76 76 76 75 75 74 74 74 75 74 74 74
79 80 80 79 79 79 79 80 80 79 78 78 78 78 77 77 77 77 76 75 76 76 76 76 76 76 77 77 77 77 77 76 76 75 75 75 75 75 75 74 75 74
80 80 79 79 79 80 80 80 81 81 80 79 79 79 79 78 77 77 76 75 76 76 76 76 76 77 77 77 77 78 77 77 76 76 75 75 75 75 77 75 75 75
79 80 80 80 80 80 80 81 81 81 80 80 80 79 79 79 78 78 78 76 76 76 76 76 76 77 77 77 78 78 77 77 77 76 76 76 75 75 75 75 75 75
80 80 80 80 80 80 81 81 81 82 81 81 81 81 80 80 80 78 78 78 77 77 77 77 76 77 77 77 77 77 77 76 76 76 76 76 76 76 76 75 75 76
80 80 81 80 81 80 80 81 81 81 81 81 81 80 81 81 81 80 79 79 79 78 78 78 77 76 76 77 77 77 77 76 76 76 76 76 76 76 76 76 76 76
80 80 81 80 80 80 80 80 80 80 81 81 80 81 82 82 82 81 80 79 79 78 78 78 78 77 77 77 77 76 77 77 77 76 76 76 76 76 76 75 76 77
80 80 80 80 79 79 79 79 80 80 80 80 80 81 81 81 81 81 81 80 79 78 78 78 78 78 77 73 74 78 77 78 77 76 76 76 76 75 76 76 76 77
80 79 79 79 79 79 79 79 79 79 79 79 79 80 80 80 80 80 81 81 80 79 78 79 79 80 73 68 69 71 77 77 77 76 76 76 76 75 75 76 76 76
80 79 79 79 79 78 79 78 79 79 78 79 79 79 79 80 80 80 80 81 81 80 80 79 79 75 69 67 68 68 72 78 78 77 77 76 76 76 76 76 76 76
80 79 79 79 79 79 79 79 78 78 78 78 79 80 80 79 79 80 80 80 81 79 80 80 80 73 68 66 66 66 67 74 79 78 77 76 76 76 76 76 76 76
80 79 79 79 79 79 79 78 78 78 78 79 80 79 79 79 80 79 80 79 80 80 79 80 80 74 67 65 65 65 66 69 79 78 77 77 77 76 77 76 76 75
80 79 79 79 79 79 78 78 78 78 78 79 80 80 79 78 79 79 79 79 80 81 80 80 82 72 66 64 63 63 64 67 77 79 78 77 77 77 77 77 77 77
80 79 79 79 79 79 78 78 78 78 78 79 79 80 80 80 80 80 80 80 80 81 80 80 82 70 65 63 62 62 63 70 74 76 77 77 77 77 77 77 77 77
77 80 79 79 79 79 78 78 78 78 78 79 79 80 80 80 80 80 80 80 80 80 80 80 81 72 64 62 61 61 63 71 73 75 76 77 77 77 77 77 77 77
75 76 79 80 79 79 79 79 80 80 80 80 79 79 80 81 81 81 81 81 81 80 81 80 81 75 63 61 60 59 65 72 73 74 75 76 77 78 77 77 78 80
75 75 76 79 80 80 80 79 79 80 80 81 81 81 81 81 81 81 81 81 82 82 80 80 82 77 63 60 59 58 64 74 75 74 75 75 76 77 77 77 76 79
79 77 79 80 80 80 80 80 81 81 80 80 80 81 81 81 81 81 81 81 82 82 82 81 81 82 74 59 59 57 60 74 76 75 74 75 76 76 76 76 77 77
MSLP
1015.89 1016.17 1016.49 1016.77 1016.97 1017.05 1017.25 1017.57 1017.69 1017.89 1017.97 1018.09 1018.33 1018.29 1018.29 1018.13 1018.25 1018.41 1018.49 1018.65 1018.73 1018.85 1018.89 1018.97 1019.01 1019.17 1019.25 1019.37 1019.53 1019.73 1019.93 1020.05 1020.09 1020.17 1020.37 1020.49 1020.57 1020.61 1020.73 1020.73 1020.77 1020.77
1015.65 1015.85 1016.05 1016.33 1016.65 1016.85 1017.01 1017.09 1017.33 1017.53 1017.69 1017.77 1017.77 1017.89 1017.97 1018.13 1018.21 1018.29 1018.49 1018.61 1018.69 1018.77 1018.77 1018.93 1019.01 1019.09 1019.25 1019.37 1019.53 1019.81 1019.97 1020.05 1020.17 1019.97 1020.33 1020.49 1020.45 1020.49 1020.61 1020.61 1020.69 1020.73
1015.37 1015.69 1015.97 1016.25 1016.37 1016.57 1016.69 1016.81 1017.01 1017.17 1017.37 1017.37 1017.49 1017.65 1017.81 1017.85 1018.09 1018.17 1018.33 1018.49 1018.69 1018.73 1018.81 1018.85 1018.97 1019.05 1019.17 1019.29 1019.45 1019.69 1019.93 1020.05 1020.21 1020.01 1020.21 1020.37 1020.29 1020.45 1020.41 1020.49 1020.61 1020.65
1015.13 1015.29 1015.53 1015.73 1015.89 1016.13 1016.33 1016.65 1016.85 1017.01 1017.09 1017.37 1017.49 1017.37 1017.49 1017.57 1017.77 1018.05 1018.25 1018.37 1018.61 1018.73 1018.77 1018.85 1018.93 1018.97 1019.13 1019.29 1019.45 1019.69 1019.77 1019.85 1019.85 1019.93 1020.17 1020.21 1020.25 1020.29 1020.33 1020.41 1020.49 1020.57
1014.69 1015.01 1015.21 1015.41 1015.61 1015.81 1016.13 1016.45 1016.69 1016.81 1016.97 1016.97 1017.05 1017.21 1017.41 1017.61 1017.81 1017.97 1018.17 1018.33 1018.41 1018.65 1018.73 1018.85 1018.85 1018.97 1019.05 1019.25 1019.45 1019.69 1019.77 1019.89 1019.85 1019.97 1020.21 1020.33 1020.13 1020.25 1020.25 1020.37 1020.53 1020.65
1014.29 1014.53 1014.85 1015.17 1015.37 1015.69 1016.01 1016.17 1016.29 1016.49 1016.69 1016.93 1016.97 1017.01 1017.17 1017.33 1017.61 1017.81 1018.01 1018.25 1018.33 1018.49 1018.69 1018.77 1018.89 1018.89 1018.97 1019.17 1019.41 1019.61 1019.69 1019.89 1019.89 1020.01 1020.25 1020.33 1020.25 1020.13 1020.21 1020.29 1020.49 1020.65
1014.13 1014.41 1014.73 1014.93 1015.29 1015.49 1015.77 1015.85 1015.97 1016.09 1016.29 1016.37 1016.57 1016.93 1016.97 1017.25 1017.45 1017.57 1017.77 1017.97 1018.17 1018.37 1018.57 1018.73 1018.85 1018.97 1018.93 1019.09 1019.33 1019.53 1019.61 1019.69 1019.81 1019.97 1020.21 1020.25 1020.29 1020.29 1020.17 1020.25 1020.37 1020.57
1013.73 1013.93 1014.25 1014.61 1015.05 1015.33 1015.53 1015.61 1015.73 1015.85 1015.97 1016.25 1016.61 1016.61 1016.73 1016.97 1017.13 1017.25 1017.41 1017.69 1017.97 1018.17 1018.33 1018.49 1018.65 1018.77 1018.89 1019.05 1019.33 1019.49 1019.61 1019.61 1019.81 1019.97 1020.17 1020.29 1020.33 1020.41 1020.21 1020.17 1020.25 1020.49
1013.29 1013.69 1014.01 1014.41 1014.77 1015.01 1015.29 1015.33 1015.45 1015.53 1015.65 1016.09 1016.33 1016.45 1016.53 1016.69 1016.85 1017.01 1017.21 1017.45 1017.73 1017.89 1018.09 1018.33 1018.45 1018.65 1018.73 1018.93 1019.13 1019.29 1019.45 1019.57 1019.61 1019.85 1020.05 1020.25 1020.37 1020.29 1020.25 1020.17 1020.37 1020.41
1013.13 1013.33 1013.73 1014.09 1014.49 1014.61 1014.89 1014.97 1015.09 1015.29 1015.37 1015.73 1015.93 1016.17 1016.49 1016.49 1016.57 1016.77 1017.01 1017.33 1017.57 1017.77 1017.97 1018.13 1018.29 1018.41 1018.57 1018.69 1018.89 1019.05 1019.25 1019.37 1019.45 1019.65 1019.81 1019.93 1020.05 1020.09 1020.13 1020.21 1020.29 1020.41
1012.81 1013.05 1013.45 1013.73 1014.05 1014.21 1014.49 1014.65 1014.85 1015.01 1015.17 1015.37 1015.65 1015.93 1016.09 1016.33 1016.53 1016.57 1016.89 1017.17 1017.45 1017.61 1017.77 1017.89 1018.01 1018.13 1018.37 1018.49 1018.57 1018.65 1018.85 1019.05 1019.25 1019.41 1019.61 1019.73 1019.77 1019.81 1019.89 1020.01 1020.13 1020.17
1012.49 1012.73 1013.01 1013.25 1013.53 1013.77 1014.01 1014.25 1014.49 1014.73 1014.93 1015.01 1015.21 1015.57 1015.73 1015.93 1016.21 1016.45 1016.61 1016.89 1017.01 1017.17 1017.33 1017.49 1017.57 1017.77 1017.97 1018.13 1018.29 1018.45 1018.65 1018.81 1018.97 1019.17 1019.29 1019.45 1019.61 1019.65 1019.69 1019.73 1019.89 1019.85
1012.09 1012.29 1012.49 1012.77 1013.01 1013.25 1013.49 1013.81 1014.09 1014.29 1014.53 1014.77 1014.77 1015.05 1015.37 1015.65 1015.81 1016.09 1016.17 1016.41 1016.61 1016.77 1016.97 1017.13 1017.29 1017.41 1017.65 1017.81 1017.97 1018.17 1018.41 1018.65 1018.85 1018.97 1019.09 1019.21 1019.29 1019.41 1019.45 1019.49 1019.53 1019.57
1011.57 1011.73 1012.01 1012.25 1012.45 1012.73 1013.05 1013.33 1013.65 1013.93 1014.13 1014.25 1014.45 1014.77 1014.97 1015.17 1015.41 1015.65 1015.73 1015.93 1016.13 1016.33 1016.45 1016.61 1016.93 1017.17 1017.37 1017.53 1017.69 1017.89 1018.13 1018.37 1018.53 1018.73 1018.89 1019.01 1019.01 1019.09 1019.21 1019.33 1019.29 1019.29
1011.13 1011.37 1011.57 1011.89 1012.17 1012.49 1012.77 1013.05 1013.29 1013.53 1013.73 1013.93 1014.13 1014.33 1014.41 1014.57 1014.77 1015.05 1015.45 1015.69 1015.81 1015.97 1016.17 1016.29 1016.61 1016.81 1016.93 1017.17 1017.49 1017.65 1017.73 1018.01 1018.17 1018.37 1018.57 1018.77 1018.85 1018.89 1018.93 1019.01 1019.09 1019.05
1010.73 1011.01 1011.33 1011.61 1011.97 1012.25 1012.49 1012.69 1012.93 1013.17 1013.41 1013.69 1013.85 1013.93 1014.05 1014.21 1014.49 1014.69 1014.93 1015.25 1015.57 1015.73 1015.85 1016.05 1016.25 1016.25 1016.37 1016.53 1016.73 1017.05 1017.37 1017.57 1017.77 1018.01 1018.21 1018.41 1018.65 1018.77 1018.77 1018.73 1018.73 1018.77
1010.45 1010.77 1011.05 1011.41 1011.61 1011.89 1012.13 1012.41 1012.65 1012.85 1013.13 1013.33 1013.49 1013.65 1013.81 1013.93 1014.17 1014.49 1014.65 1014.77 1015.05 1015.37 1015.65 1015.77 1015.81 1015.77 1015.85 1016.13 1016.33 1016.53 1016.81 1017.17 1017.49 1017.73 1017.85 1018.09 1018.29 1018.49 1018.61 1018.53 1018.41 1018.33
1010.09 1010.45 1010.81 1011.05 1011.33 1011.61 1011.81 1012.05 1012.33 1012.61 1012.85 1013.01 1013.21 1013.41 1013.49 1013.61 1013.93 1014.05 1014.21 1014.37 1014.57 1014.85 1015.13 1015.25 1015.33 1015.25 1015.45 1015.69 1015.93 1016.17 1016.37 1016.65 1016.97 1017.33 1017.57 1017.77 1017.93 1018.09 1018.09 1018.13 1018.17 1018.13
1009.73 1010.13 1010.45 1010.73 1010.93 1011.17 1011.41 1011.73 1012.05 1012.33 1012.57 1012.77 1012.93 1012.89 1013.13 1013.45 1013.49 1013.65 1013.85 1013.93 1014.17 1014.49 1014.69 1014.69 1014.81 1014.73 1015.01 1015.25 1015.49 1015.73 1016.01 1016.21 1016.49 1016.77 1017.13 1017.33 1017.45 1017.57 1017.69 1017.77 1017.81 1017.89
1009.33 1009.69 1010.09 1010.29 1010.49 1010.77 1011.01 1011.37 1011.69 1011.97 1012.05 1012.17 1012.37 1012.57 1012.81 1012.97 1013.09 1013.29 1013.37 1013.61 1013.77 1014.01 1014.17 1014.21 1014.29 1014.21 1014.49 1014.77 1015.05 1015.29 1015.53 1015.89 1016.01 1016.25 1016.53 1016.73 1016.93 1017.05 1017.21 1017.33 1017.37 1017.53
1008.97 1009.25 1009.61 1009.89 1010.09 1010.33 1010.69 1011.01 1011.29 1011.53 1011.77 1011.85 1012.05 1012.25 1012.49 1012.65 1012.77 1012.97 1013.01 1013.09 1013.29 1013.45 1013.73 1013.85 1013.73 1013.69 1014.01 1014.29 1014.57 1014.85 1015.13 1015.53 1015.65 1015.85 1016.13 1016.33 1016.37 1016.49 1016.61 1016.69 1016.77 1016.89
1008.69 1009.01 1009.25 1009.49 1009.77 1010.01 1010.37 1010.65 1010.89 1011.13 1011.41 1011.49 1011.65 1011.73 1011.81 1012.01 1012.17 1012.29 1012.57 1012.73 1012.77 1013.01 1013.29 1013.49 1013.17 1013.17 1013.45 1013.77 1014.09 1014.41 1014.81 1015.37 1015.49 1015.73 1015.89 1015.97 1016.05 1016.09 1016.13 1016.13 1016.17 1016.37
1009.65 1008.89 1008.85 1009.13 1009.37 1009.73 1010.01 1010.21 1010.49 1010.69 1010.85 1010.85 1011.33 1011.41 1011.57 1011.69 1011.77 1011.89 1011.93 1012.17 1012.33 1012.49 1012.77 1012.81 1012.73 1012.69 1012.93 1013.21 1013.61 1014.01 1014.77 1015.13 1015.29 1015.49 1015.61 1015.69 1015.65 1015.57 1015.65 1015.65 1015.73 1015.81
1009.33 1010.09 1009.33 1008.73 1009.01 1009.29 1009.49 1009.65 1009.69 1009.85 1010.13 1010.21 1010.69 1010.97 1011.09 1011.05 1011.13 1011.33 1011.37 1011.45 1011.73 1011.93 1011.97 1012.29 1012.21 1012.09 1012.41 1012.73 1013.09 1013.65 1014.09 1014.49 1014.81 1015.13 1015.29 1015.33 1015.25 1015.13 1015.17 1015.25 1015.21 1015.21
1007.93 1009.25 1010.01 1009.17 1008.65 1008.69 1008.85 1009.17 1009.33 1009.37 1009.33 1009.53 1009.85 1010.13 1010.33 1010.37 1010.53 1010.77 1010.89 1010.93 1010.97 1011.17 1011.25 1011.57 1011.57 1011.61 1011.89 1012.29 1012.61 1013.13 1013.61 1013.81 1014.21 1014.65 1015.01 1015.01 1015.01 1014.97 1014.77 1014.85 1014.89 1014.85
1006.69 1007.65 1008.29 1008.53 1008.25 1008.21 1008.33 1008.53 1008.57 1008.85 1009.13 1009.33 1009.49 1009.65 1009.89 1010.01 1010.09 1010.25 1010.49 1010.45 1010.41 1010.57 1010.69 1010.81 1011.09 1011.13 1011.33 1011.73 1012.05 1012.57 1012.93 1013.17 1013.57 1014.25 1014.61 1014.57 1014.53 1014.61 1014.77 1014.65 1014.57 1014.61
Wind_Speed
10 9 9 8 8 8 8 8 7 7 7 6 7 7 8 7 4 5 6 5 5 6 6 5 4 4 4 3 3 3 3 5 4 4 4 4 4 3 3 3 2 2
12 11 9 8 7 6 6 7 8 8 8 7 7 6 5 4 5 5 5 6 5 6 5 5 5 4 4 4 3 4 4 4 5 3 4 4 4 3 4 3 3 1
12 11 10 10 10 9 9 8 7 8 7 8 7 5 6 5 5 5 5 6 6 6 5 5 5 4 4 4 3 4 5 4 5 4 4 5 3 4 3 3 2 2
13 13 12 12 10 9 8 7 7 7 6 6 7 8 7 6 6 6 6 6 6 6 5 5 6 5 4 4 3 4 4 5 5 4 4 3 3 3 4 2 2 1
15 13 12 11 10 8 6 7 8 8 8 9 8 6 6 5 5 6 6 6 6 6 5 6 5 5 4 4 4 4 4 5 4 4 4 5 5 3 3 2 3 3
13 13 12 11 10 10 9 9 9 9 9 8 9 7 7 7 6 6 6 7 7 7 6 6 6 6 5 5 4 5 4 5 4 4 4 5 5 4 3 3 3 4
13 13 13 11 10 9 10 9 8 8 9 9 6 7 7 8 8 8 8 8 8 7 7 6 6 6 5 5 5 5 5 4 3 4 5 5 4 5 3 4 4 4
14 13 13 11 11 10 10 10 9 8 7 5 7 7 7 8 9 8 8 8 8 8 7 7 6 6 5 5 6 6 5 4 4 4 4 4 3 5 5 4 4 4
14 13 12 13 13 12 12 11 10 9 7 7 7 6 6 7 8 8 8 7 8 8 8 7 7 7 6 6 6 7 7 5 5 5 5 5 6 6 5 4 4 5
13 13 13 13 13 12 13 12 11 9 8 8 8 6 7 6 7 8 7 7 8 7 7 7 7 7 7 7 8 8 8 8 6 5 5 6 7 6 6 5 6 5
14 13 14 14 14 12 13 13 12 10 9 10 9 8 8 7 6 6 6 6 8 8 8 8 8 8 8 8 8 7 8 8 7 6 6 6 6 6 6 6 6 7
15 14 15 15 15 14 14 13 12 11 10 10 10 10 9 8 8 7 7 8 8 8 8 9 8 8 9 9 9 8 7 7 6 6 6 6 6 6 6 5 6 7
15 15 14 14 14 13 12 12 12 12 12 11 10 11 11 10 9 9 8 8 9 8 8 9 9 8 9 9 9 8 8 8 7 7 7 6 6 6 5 5 6 6
15 14 14 14 13 12 12 12 12 12 12 11 10 11 11 11 11 10 9 8 9 9 9 8 8 8 8 8 8 8 8 8 8 8 8 7 6 6 6 6 7 7
13 12 12 12 12 12 12 12 12 12 11 11 10 11 10 11 10 10 10 9 9 9 9 8 8 8 8 8 8 9 8 9 9 9 9 8 8 7 6 6 6 7
13 12 12 12 12 12 12 12 12 12 11 11 11 11 10 10 10 10 10 10 10 9 9 8 8 7 10 15 13 10 9 9 8 8 8 8 8 8 8 7 8 7
12 12 12 13 13 12 11 12 12 11 11 11 11 11 11 10 10 10 11 10 10 10 10 9 8 9 15 16 16 17 11 9 9 9 8 8 8 8 9 9 8 8
13 12 13 13 12 13 12 12 11 11 12 12 11 12 11 10 11 11 11 10 10 10 10 10 9 12 16 16 17 17 15 11 9 8 8 8 8 9 9 8 9 8
12 13 13 13 13 13 12 12 12 12 12 12 13 12 10 11 12 11 11 11 10 10 11 11 10 14 16 17 17 18 18 15 9 9 9 9 9 9 9 9 8 8
13 13 14 14 13 13 12 13 13 13 13 12 11 11 12 12 12 13 11 11 11 11 10 10 11 14 17 17 18 18 19 16 11 10 10 10 10 10 9 9 9 9
13 14 14 13 13 13 13 13 13 12 13 12 11 12 12 12 12 12 12 11 11 11 10 11 11 16 16 18 18 19 19 16 11 10 9 9 9 9 10 10 10 10
13 13 13 13 13 13 13 13 13 13 13 12 11 11 11 10 10 11 12 12 11 11 11 12 12 17 17 18 19 18 18 11 10 10 10 10 10 10 10 10 10 10
10 12 13 13 13 13 14 14 13 13 12 11 12 12 12 12 12 11 11 12 12 12 13 13 12 15 18 19 19 19 13 9 10 9 10 11 11 10 10 10 10 10
8 10 12 13 13 14 14 14 13 12 12 12 13 13 13 13 12 11 12 12 13 14 14 13 13 14 18 19 19 19 16 12 10 10 11 11 11 11 9 9 10 15
10 10 12 13 13 14 13 14 14 14 13 12 12 12 12 11 12 12 12 11 12 13 16 17 14 14 17 19 20 19 17 11 10 9 10 11 10 11 10 9 9 11
12 14 16 15 14 14 12 13 12 11 11 12 12 11 11 11 11 11 13 12 12 13 13 15 15 13 13 19 20 20 21 14 10 10 11 12 11 11 10 9 9 9
Wind_Direction
196 195 199 197 198 199 194 192 197 197 202 199 202 211 208 215 195 197 201 196 202 206 211 217 217 216 219 215 212 208 207 212 215 201 209 217 232 216 222 217 209 206
199 199 203 202 199 195 198 196 196 198 202 202 210 208 212 194 204 196 200 203 203 210 209 210 215 218 219 216 202 198 212 207 220 192 206 220 235 213 231 224 215 207
199 199 202 204 205 200 195 194 195 202 202 208 207 206 206 199 197 200 200 201 206 210 210 213 216 220 217 222 209 198 198 201 216 211 208 228 229 228 237 226 221 212
202 201 202 207 208 208 198 186 197 202 208 205 209 209 203 205 194 196 200 201 204 210 211 211 219 220 214 217 209 211 206 205 210 195 211 235 235 225 250 231 236 263
200 202 204 207 208 207 197 196 198 200 201 207 209 205 201 202 196 200 198 204 201 208 204 212 218 223 216 212 206 216 207 209 206 192 205 228 239 223 243 226 245 255
201 202 203 203 204 200 200 203 204 199 203 204 207 196 199 198 197 199 200 203 204 204 206 208 211 220 216 216 204 216 206 200 197 187 205 219 239 237 242 230 235 251
200 200 203 202 203 203 207 210 208 205 204 207 196 200 194 196 199 199 198 201 201 202 205 205 209 214 213 212 210 217 215 202 184 185 202 222 221 241 244 238 235 242
201 200 201 201 203 203 207 211 209 208 206 196 197 208 192 200 203 203 198 196 196 201 203 206 207 211 209 201 213 221 223 202 201 196 208 218 212 229 233 230 229 237
200 200 199 201 204 206 211 211 211 211 203 199 205 206 200 202 206 205 200 195 199 200 200 203 203 207 204 202 214 218 222 219 208 204 212 218 219 228 227 225 235 236
200 201 199 201 205 208 211 213 211 211 205 208 210 207 205 211 207 207 200 196 200 201 200 202 202 203 202 205 212 214 220 224 219 213 216 221 226 227 225 217 228 238
202 199 200 202 206 208 212 213 212 210 206 209 210 214 213 208 212 206 204 196 200 201 200 202 203 201 202 207 212 213 216 220 221 219 219 222 226 229 223 219 225 230
202 201 202 202 204 206 210 211 211 211 207 207 207 212 213 213 210 207 205 205 205 203 201 204 203 200 202 207 209 210 212 218 220 221 224 222 225 229 229 220 223 231
202 203 203 204 204 206 207 209 211 211 209 210 205 208 210 213 213 212 210 207 210 207 206 204 204 203 204 206 208 206 208 210 215 219 224 224 225 227 231 232 231 232
204 203 204 204 204 204 205 208 209 211 213 212 207 208 210 211 213 212 213 209 213 211 212 207 204 203 206 207 206 205 204 209 210 215 220 226 231 227 224 228 233 238
202 203 204 204 204 203 205 207 208 210 212 212 211 213 213 213 213 212 212 212 214 213 213 209 205 206 203 203 204 206 205 208 209 211 214 222 230 234 229 226 231 236
201 201 201 202 203 204 205 205 207 208 210 212 214 215 216 213 212 212 213 213 212 213 212 210 211 209 207 203 201 203 204 209 208 212 214 218 224 232 238 232 232 232
199 201 199 202 203 204 204 205 206 206 208 211 213 215 216 214 212 213 215 215 213 211 210 212 213 214 208 203 204 205 202 205 206 211 211 215 219 224 232 235 239 238
199 199 201 202 201 204 204 204 205 206 209 209 211 213 214 213 215 215 215 215 215 213 212 212 215 214 207 204 204 205 204 205 206 210 209 212 216 222 229 233 237 239
198 200 201 203 203 202 203 202 204 207 209 209 211 211 210 213 216 215 216 214 214 214 216 214 218 212 208 204 204 203 205 206 208 207 208 211 212 217 224 230 233 236
199 200 202 204 202 202 202 203 203 207 208 209 210 208 210 214 214 217 217 214 214 215 217 217 218 217 207 205 204 203 203 202 213 208 210 213 212 213 218 224 226 230
201 200 202 202 202 203 203 204 205 207 207 208 208 209 210 212 213 215 216 215 215 213 216 218 222 217 208 204 205 203 203 198 212 212 212 215 216 215 218 220 224 224
205 202 203 203 203 203 203 204 204 204 206 205 208 211 212 212 215 215 215 215 215 214 215 221 223 214 208 205 204 204 198 196 207 213 216 218 219 218 218 221 222 222
247 217 202 203 203 204 205 205 203 204 206 202 207 209 209 210 211 212 213 213 213 212 214 220 224 214 206 206 204 201 187 199 204 211 218 222 226 220 219 221 221 220
215 247 230 205 204 206 206 206 206 206 205 200 204 206 210 209 207 211 212 212 212 214 213 218 224 216 202 206 204 195 186 195 201 205 217 222 229 227 221 222 223 220
185 208 234 227 211 211 207 206 205 204 204 201 206 208 211 208 207 210 211 212 213 215 214 215 223 220 202 202 203 194 190 200 198 203 215 222 225 231 227 224 226 227
189 199 217 220 217 214 210 208 207 205 204 203 205 207 209 208 209 210 212 213 211 213 216 215 220 222 205 201 200 196 191 196 199 200 215 221 221 225 230 227 227 228